Dewpoint
54 56 56 57 58 59 60 60 61 62 62 65 68 69 69 68 67 65 63 62 63 66 67 69 68 68 67 67 66 66 66 65 66
54 54 55 56 55 56 57 57 58 59 60 61 62 63 67 67 67 66 65 63 65 66 67 66 67 67 68 68 67 67 66 66 65
55 54 54 53 54 55 55 56 56 57 57 58 59 61 63 62 66 67 66 66 68 67 68 67 65 66 67 67 67 67 67 67 66
54 51 51 52 53 54 54 55 56 56 57 57 58 60 61 58 61 66 66 67 69 69 69 69 67 66 67 67 66 67 67 67 67
51 52 52 52 53 52 52 53 52 53 52 55 57 60 61 55 55 60 65 67 69 69 69 69 68 67 68 68 68 68 67 67 67
45 50 54 52 50 49 49 49 49 49 47 49 50 55 52 53 52 54 59 60 63 66 68 69 69 69 69 70 69 69 68 67 67
43 44 47 46 48 46 47 48 47 43 37 38 43 41 41 45 47 47 54 56 59 64 67 68 69 69 69 70 69 69 69 68 68
38 38 38 38 41 37 39 38 38 37 37 37 36 36 36 40 44 46 54 57 61 65 67 67 69 69 68 69 69 69 69 69 69
37 37 37 36 36 36 38 38 38 39 39 39 39 38 37 37 41 46 54 61 64 65 64 66 67 66 68 68 68 68 68 68 68
37 36 36 36 36 37 38 39 40 40 41 42 42 41 40 39 38 43 52 59 61 59 56 56 57 61 65 67 66 67 67 67 67
37 36 36 35 36 39 39 40 41 42 42 43 43 43 43 41 37 40 44 53 60 55 53 53 54 54 57 61 62 63 64 64 65
35 36 36 36 38 39 40 40 42 42 43 44 44 44 44 43 42 43 44 47 55 56 53 54 54 54 55 57 59 60 61 59 60
35 36 36 37 39 40 39 40 41 42 43 44 45 45 45 45 44 44 44 46 48 52 55 54 54 54 54 55 57 58 59 58 58
36 37 37 38 39 38 39 40 41 41 43 44 45 46 46 46 46 45 46 47 47 48 55 55 54 54 54 53 53 53 55 58 59
38 38 37 39 38 37 38 39 40 41 43 43 45 46 47 47 47 46 46 47 47 47 48 50 51 55 54 55 56 56 55 55 55
38 39 37 38 37 36 38 39 40 40 42 43 44 46 47 45 46 47 46 46 46 46 46 48 48 49 53 53 53 52 52 52 53
40 38 38 38 37 36 37 39 39 40 41 41 42 42 44 45 46 46 46 45 45 45 46 45 45 45 48 51 52 52 51 51 52
42 40 38 37 37 37 37 39 39 39 40 41 43 41 40 43 43 45 42 42 41 41 42 41 43 45 46 50 51 51 50 50 51
44 42 38 37 38 37 38 39 39 39 39 40 41 42 43 40 39 42 42 41 40 40 40 40 40 44 45 49 50 52 51 50 50
44 42 39 37 38 37 38 38 37 39 40 40 40 40 40 43 41 38 39 39 40 40 39 39 40 42 45 48 50 52 49 49 50
Lifted_Index
8 8 7 7 7 6 6 5 5 4 3 1 -0 -1 -2 -2 -1 -1 -0 1 1 -0 -1 -2 -2 -1 -1 -1 -0 0 1 1 1
8 8 8 8 8 7 7 7 6 5 5 3 2 1 -1 -1 -1 -1 -1 -0 -0 -1 -1 -1 -1 -1 -1 -1 -1 -0 0 1 1
8 9 9 9 9 9 8 8 7 7 6 6 5 3 2 0 -1 -1 -2 -1 -2 -2 -2 -1 -1 -1 -1 -1 -1 -1 -0 0 0
9 10 10 10 10 9 9 9 8 8 8 7 6 5 4 3 1 -1 -1 -2 -2 -3 -3 -2 -2 -1 -1 -1 -1 -1 -1 -0 -0
12 12 11 11 11 11 11 11 10 10 10 9 8 7 7 6 4 2 0 -1 -2 -3 -3 -3 -2 -2 -2 -2 -2 -1 -1 -1 -1
14 13 13 12 13 13 13 13 13 13 13 12 10 9 9 8 7 5 3 2 0 -2 -3 -3 -3 -3 -3 -3 -3 -2 -2 -1 -1
15 15 14 14 15 15 15 15 15 15 14 13 13 12 10 9 8 7 6 4 2 -1 -2 -3 -3 -3 -3 -3 -3 -3 -2 -2 -2
15 15 15 16 16 16 16 16 16 15 14 14 13 12 11 9 7 6 5 3 1 -1 -2 -2 -2 -2 -2 -3 -3 -3 -3 -3 -2
15 15 15 16 16 17 17 17 16 15 14 13 13 11 10 7 5 3 2 1 -1 -2 -2 -1 -0 -0 -1 -2 -2 -3 -3 -2 -2
15 15 15 16 16 17 17 17 15 14 13 12 11 9 7 5 3 2 1 -0 -1 -1 1 2 2 2 1 -0 -2 -2 -2 -2 -2
15 15 15 16 16 17 17 16 15 14 13 11 9 7 6 4 3 3 2 1 0 1 2 3 4 3 2 1 -0 -1 -1 -1 -1
14 14 15 16 16 17 17 16 15 14 12 10 8 7 6 5 4 4 3 3 2 2 3 3 4 4 3 2 1 1 1 1 2
13 14 15 16 16 17 17 16 15 14 12 10 8 7 6 6 5 5 4 4 4 4 4 4 4 5 5 4 4 3 3 3 3
13 13 14 15 16 17 17 16 15 14 13 10 8 6 6 6 5 5 5 5 5 5 5 6 6 6 6 6 6 5 5 5 4
12 13 14 15 16 17 16 15 15 15 13 11 8 6 5 5 5 5 5 6 6 6 6 7 7 7 7 7 7 7 6 6 6
12 13 14 15 16 16 16 15 15 15 14 11 8 6 5 5 5 5 6 6 7 7 7 8 8 8 8 8 8 8 8 8 7
12 12 13 14 15 16 16 16 15 15 14 12 9 7 6 6 6 6 6 6 7 7 8 8 9 9 9 9 9 9 9 9 9
12 12 13 14 15 16 16 16 15 15 14 13 11 9 8 7 7 6 6 7 7 8 9 9 10 10 10 10 10 10 10 10 9
12 12 13 14 15 16 17 16 16 15 15 14 13 12 10 9 8 8 8 8 8 8 9 10 10 11 11 11 11 11 11 10 10
12 12 13 14 15 16 17 17 16 16 15 15 14 13 12 11 10 9 9 9 9 9 9 10 10 11 11 11 11 11 11 11 11